Weather in Dillenburg

Germany     50°44′27″N   8°17′00″E
temp.,
°C
wind,
m/s
gust,
m/s
humid.,
%
clouds,
%
prec.,
mm/h
press.,
hPa
HPBL,
m
6 march, sat
sat601:00−2ne12790 0.0 103423
04:00−3nne11770 0.0 103422
07:00−3nne11760 0.0 103421
10:00+3ne12480 0.0 1034642
13:00+6e223516 0.0 10331205
16:00+5ese224118 0.0 10321032
19:00−1ese016220 0.0 103122
22:00−2ne126823 0.0 103121
7 march, sun
sun701:00−2ene128123 0.0 103024
04:00−3ne118726 0.0 102821
07:00−3n118522 0.0 102821
10:00+4n12490 0.0 1027486
13:00+7nw12380 0.0 10251046
16:00+6nw23440 0.0 10231248
19:000n22830 0.0 102329
22:00−2n12880 0.0 102422
8 march, mon
mon801:00−3n12941 0.0 102421
04:00−3nnw11940 0.0 102321
07:00−3nnw119313 0.0 102421
10:00+3nne126057 0.0 1024706
13:00+5ene115877 0.0 1023929
16:00+4ese0063100 0.0 1022862
19:00+1se1177100 0.0 102222
22:000se0182100 0.0 102121
9 march, tue
tue901:000e1188100 0.1 102126
04:00−1wsw0098100 0.4 102046
07:00−1wsw1198100 1.0 102022
10:00+3wnw237379 0.0 1021629
13:00+6w236480 0.0 1021952
16:00+5wnw236890 0.1 1019921
19:00+3wnw118385 0.1 102022
22:00+1sw128837 0.0 102222
10 march, wed
wed1001:000sw129123 0.0 102222
04:00−1wsw12921 0.0 102121
07:00−1ssw269350 0.0 1021191
10:00+4sw4971100 0.0 1020651
13:00+6sw51065100 0.0 1019816
16:00+6sw61176100 0.0 1017928
19:00+4sw61490100 1.1 1015772
22:00+4sw71690100 1.0 1014923